TimeCST,TemperatureF,Dew PointF,Humidity,Sea Level PressureIn,VisibilityMPH,Wind Direction,Wind SpeedMPH,Gust SpeedMPH,PrecipitationIn,Events,Conditions,WindDirDegrees,DateUTC
12:55 AM,24.1,23.0,96,30.16,7.0,Calm,Calm,-,N/A,,Clear,0,2012-11-15 06:55:00
1:55 AM,25.0,23.0,92,30.16,10.0,West,4.6,-,N/A,,Clear,260,2012-11-15 07:55:00
2:55 AM,27.0,26.1,96,30.18,10.0,Calm,Calm,-,N/A,,Clear,0,2012-11-15 08:55:00
3:55 AM,24.1,21.9,91,30.21,9.0,Calm,Calm,-,N/A,,Clear,0,2012-11-15 09:55:00
4:55 AM,23.0,21.9,96,30.24,10.0,Calm,Calm,-,N/A,,Clear,0,2012-11-15 10:55:00
5:55 AM,19.9,19.9,100,30.27,8.0,WNW,3.5,-,N/A,,Clear,300,2012-11-15 11:55:00
6:55 AM,21.0,21.0,100,30.31,10.0,WNW,6.9,-,N/A,,Clear,290,2012-11-15 12:55:00
7:55 AM,23.0,21.0,92,30.35,10.0,NW,6.9,-,N/A,,Clear,320,2012-11-15 13:55:00
8:55 AM,32.0,28.9,88,30.38,10.0,NNW,9.2,-,N/A,,Clear,330,2012-11-15 14:55:00
9:55 AM,35.1,28.9,78,30.41,10.0,North,13.8,-,N/A,,Clear,350,2012-11-15 15:55:00
10:55 AM,37.0,28.0,70,30.44,10.0,NNW,13.8,-,N/A,,Clear,340,2012-11-15 16:55:00
11:55 AM,39.0,28.0,65,30.44,10.0,North,12.7,-,N/A,,Clear,350,2012-11-15 17:55:00
12:55 PM,41.0,26.1,55,30.44,10.0,North,12.7,20.7,N/A,,Clear,360,2012-11-15 18:55:00
1:55 PM,42.1,24.1,49,30.44,10.0,North,11.5,-,N/A,,Clear,360,2012-11-15 19:55:00
2:55 PM,42.1,21.9,45,30.45,10.0,North,11.5,-,N/A,,Clear,350,2012-11-15 20:55:00
3:55 PM,39.9,21.0,47,30.47,10.0,North,11.5,-,N/A,,Clear,10,2012-11-15 21:55:00
4:55 PM,35.1,19.0,52,30.49,10.0,North,6.9,-,N/A,,Clear,10,2012-11-15 22:55:00
5:55 PM,28.0,18.0,66,30.51,10.0,North,3.5,-,N/A,,Clear,350,2012-11-15 23:55:00
6:55 PM,21.9,15.1,75,30.52,10.0,Calm,Calm,-,N/A,,Clear,0,2012-11-16 00:55:00
7:55 PM,21.9,16.0,78,30.52,10.0,Calm,Calm,-,N/A,,Clear,0,2012-11-16 01:55:00
8:55 PM,15.1,12.0,88,30.52,10.0,Calm,Calm,-,N/A,,Clear,0,2012-11-16 02:55:00
9:55 PM,19.0,14.0,81,30.53,10.0,Calm,Calm,-,N/A,,Clear,0,2012-11-16 03:55:00
10:55 PM,15.1,10.0,80,30.52,10.0,Calm,Calm,-,N/A,,Clear,0,2012-11-16 04:55:00
11:55 PM,19.0,15.1,85,30.52,10.0,Calm,Calm,-,N/A,,Clear,0,2012-11-16 05:55:00